SCP
0 0 0 0 0 0 0 0 0 0 0 0 -0 -0 -0 0 0 -0 0 -0 -0 -0 -0 -0 -0 -0 -0 -0 -0 -0 -0 -0 -0 -0 -0 -0 -0 -0 -0 -0 -0 -0 -0 -0 -0 -0 -0 -0 -0
0 0 0 0 0 0 0 0 -0 0 0 -0 -0 -0 -0 0 0 0 0 -0 -0 -0 -0 -0 -0 -0 -0 -0 -0 -0 -0 -0 -0 -0 -0 -0 -0 -0 -0 -0 -0 -0 -0 -0 -0 -0 -0 -0 -0
0 0 0 0 0 0 0 0 0 0 0 0 -0 -0 0 0 0 0 0 0 -0 -0 -0 -0 -0 -0 0 0 0 0 -0 0 -0 -0 -0 -0 -0 -0 -0 -0 -0 -0 -0 -0 -0 -0 -0 -0 -0
0 0 0 0 0 0 0 0 0 0 0 0 0 -0 0 0 0 0 -0 -0 -0 -0 -0 -0 -0 -0 -0 0 0 0 -0 -0 -0 -0 -0 -0 -0 -0 -0 -0 -0 -0 -0 -0 -0 -0 -0 -0 -0
0 0 0 0 0 0 0 0 0 0 0 0 -0 0 0 -0 -0 -0 -0 -0 -0 0 0 0 0 -0 -0 -0 0 0 -0 -0 -0 -0 -0 -0 -0 -0 -0 -0 -0 -0 -0 -0 -0 -0 -0 -0 -0
0 0 0 0 0 0 0 0 0 0 0 0 0 0 0 -0 0 0 0 0 0 0 0 0 -0 -0 -0 -0 0 0 0 -0 -0 -0 -0 -0 -0 -0 -0 -0 -0 -0 -0 -0 -0 -0 -0 -0 -0
0 0 0 0 0 0 0 0 0 0 0 -0 0 0 0 -0 -0 0 -0 -0 -0 0 0 0 0 0 0 -0 -0 -0 0 0 -0 -0 -0 -0 -0 -0 -0 -0 -0 -0 -0 -0 -0 -0 -0 -0 -0
0 0 0 0 0 0 0 0 0 0 0 0 0 0 -0 -0 0 0 -0 -0 -0 0 0 0 0 0 0 0 0 0 0 0 -0 -0 -0 -0 -0 -0 -0 -0 -0 -0 -0 -0 -0 -0 -0 -0 -0
0 0 0 0 0 0 0 0 0 0 0 0 0 0 0 0 0 0 0 0 0 0 0 0 0 0 0 0 0 0 0 -0 -0 -0 -0 -0 -0 -0 -0 -0 -0 -0 -0 -0 -0 -0 -0 -0 0
0 0 0 0 0 0 0 0 0 0 0 0 0 0 0 0 0 -0 0 0 0 0 0 0 -0 0 0 0 0 0 0 0 -0 -0 -0 -0 0 0 0 0 -0 0 -0 -0 -0 -0 -0 0 0
0 0 0 0 0 0 0 0 0 0 0 0 0 0 0 0 0 0 0 0 0 0 0 0 0 -0 -0 0 0 0 0 0 0 -0 -0 -0 0 0 0 0 0 0 0 0 0 0 0 0 0
0 0 0 -0 0 0 0 0 0 0 0 0 0 0 0 0 0 0 0 -0 0 0 0 0 0 0 0 -0 0 0 0 0 -0 -0 -0 -0 0 0 0 0 0 0 0 0 0 0 0 0 0
0 0 0 -0 0 0 0 0 0 0 0 0 0 0 0 0 0 0 0 0 0 0 0 0 0 0 0 -0 0 0 -0 -0 -0 -0 -0 -0 0 0 0 0 0 0 0 0 0 0 0 0 0
0 0 0 0 0 0 0 0 0 0 0 0 0 0 0 0 0 0 0 0 0 0 0 0 0 0 -0 -0 -0 -0 -0 -0 -0 -0 -0 0 0 0 0 0 0 0 0 0 0 0 0 0 0
0 0 0 0 0 0 0 0 0 0 0 0 0 0 0 0 0 0 0 0 0 0 0 0 0 0 -0 0 0 0 0 0 0 0 0 0 0 0 0 0 0 0 0 0 0 0 0 0 0
0 0 0 0 0 0 0 -0 0 0 0 0 0 0 0 0 0 0 0 0 0 0 0 0 0 0 0 0 0 0 0 0 0 0 0 0 0 0 0 0 0 0 0 0 0 0 0 0 0
0 0 0 0 0 0 0 -0 0 0 0 0 0 0 0 0 0 0 0 0 0 0 0 0 0 0 0 0 0 0 0 0 0 0 0 0 0 0 0 0 0 0 0 0 0 0 0 0 0
0 0 0 0 0 0 0 0 0 0 0 0 0 0 0 0 0 0 0 0 0 0 0 0 0 0 0 0 0 0 0 0 0 0 0 0 0 0 0 0 0 0 0 0 0 0 0 0 0
0 0 0 0 0 0 0 0 0 0 0 0 0 0 0 0 0 0 0 0 0 0 0 0 0 0 0 0 0 0 0 0 0 0 0 0 0 0 0 0 0 0 0 0 0 0 0 0 0
0 0 0 0 0 0 0 0 0 0 0 0 0 0 0 0 0 0 0 0 0 0 0 0 0 0 0 0 0 0 0 0 0 0 0 0 0 0 0 0 0 0 0 0 0 0 0 0 0
0 0 0 0 0 0 0 0 0 0 0 0 0 0 0 0 0 0 0 0 0 0 0 0 0 0 0 0 0 0 0 0 0 0 0 0 0 0 0 0 0 0 0 0 0 0 0 0 0
0 0 0 0 0 0 0 0 0 0 0 0 0 0 0 0 0 0 0 0 0 0 0 0 0 0 0 0 0 0 0 0 0 0 0 0 0 0 0 0 0 0 0 0 0 0 0 0 0
0 0 0 0 0 0 0 0 0 0 0 0 0 0 0 0 0 0 0 0 0 0 0 0 0 0 0 0 0 0 0 0 0 0 0 0 0 0 0 0 0 0 0 0 0 0 0 0 0
0 0 0 0 0 0 0 0 0 0 0 0 0 0 0 0 0 0 0 0 0 0 0 0 0 0 0 0 0 0 0 0 0 0 0 0 0 0 0 0 0 0 0 0 0 0 0 0 0
0 0 0 0 0 0 0 0 0 0 0 0 0 0 0 0 0 0 0 0 0 0 0 0 0 0 0 0 0 0 0 0 0 0 0 0 0 0 0 0 0 0 0 0 0 0 0 0 0
0 0 0 0 0 0 0 0 0 0 0 0 0 0 0 0 0 0 0 0 0 0 0 0 0 0 0 0 0 0 0 0 0 0 0 0 0 0 0 0 0 0 0 0 0 0 0 0 0
0 0 0 0 0 0 0 0 0 0 0 0 0 0 0 0 0 0 0 0 0 0 0 0 0 0 0 0 0 0 0 0 0 0 0 0 0 0 0 0 0 0 0 0 0 0 0 0 0
0 0 0 0 0 0 0 0 0 0 0 0 0 0 0 0 0 0 0 0 0 0 0 0 0 0 0 0 0 0 0 0 0 0 0 0 0 0 0 0 0 0 0 0 0 0 0 0 0
0 0 0 0 0 0 0 0 0 0 0 0 0 0 0 0 0 0 0 0 0 0 0 0 0 0 0 0 0 0 0 0 0 0 0 0 0 0 0 0 0 0 0 0 0 0 0 0 0
0 0 0 0 0 0 0 0 0 0 0 -0 0 0 0 0 0 0 0 0 0 0 0 0 0 0 0 0 0 0 0 0 0 0 0 0 0 0 0 0 0 0 0 0 0 0 0 0 0
Wind_Speed_500mb
8 11 12 5 9 9 1 3 2 6 3 1 11 8 10 11 6 6 32 26 36 31 29 24 14 16 18 19 19 19 22 21 20 21 22 19 17 11 10 16 24 30 33 29 26 22 23 23 23
7 8 3 7 9 6 8 4 8 4 22 31 23 13 8 6 8 26 35 37 34 31 29 24 21 19 20 20 20 21 24 26 21 26 29 25 20 20 30 32 32 32 32 31 29 27 26 24 28
5 4 3 9 7 5 7 6 7 11 29 4 8 13 7 6 18 43 33 44 36 32 27 27 25 19 20 21 22 23 29 29 21 27 31 29 31 31 31 30 34 34 33 31 27 30 24 23 25
2 5 10 8 4 5 7 5 10 15 5 2 17 14 9 14 36 24 37 42 35 30 25 26 25 22 19 19 22 25 30 31 24 29 28 26 27 28 27 28 29 30 31 28 20 20 19 22 26
8 7 8 5 5 5 5 10 21 5 8 14 3 7 10 31 22 29 38 41 33 31 25 26 25 23 20 17 20 23 21 21 20 24 25 22 21 25 24 24 24 23 22 15 15 15 16 19 22
10 8 8 1 7 8 4 19 12 4 7 15 15 18 13 20 25 34 38 38 30 26 28 27 27 24 21 18 18 19 20 18 18 20 22 22 21 22 25 24 23 21 18 15 14 16 16 19 22
9 8 3 6 5 6 6 21 9 10 9 6 29 10 10 30 30 35 39 35 32 28 29 31 31 26 22 18 18 18 19 19 19 19 21 22 22 24 26 24 22 20 19 16 15 14 15 17 20
12 10 10 4 4 6 4 15 7 19 9 21 18 12 11 44 41 41 40 36 34 30 29 32 32 27 22 20 18 18 19 19 19 19 18 19 23 23 22 20 20 18 17 16 14 11 12 15 18
14 6 7 7 8 7 4 7 8 13 19 17 16 7 9 49 48 50 48 44 40 36 32 32 32 31 25 22 21 20 19 17 17 16 15 15 16 16 18 18 16 15 14 13 11 9 10 12 15
8 7 13 6 4 7 5 7 19 12 18 15 17 15 21 53 57 59 60 56 47 41 38 33 32 32 30 25 21 20 18 16 15 14 13 12 12 12 12 12 13 12 10 9 8 7 8 11 13
7 10 10 14 5 10 13 9 16 16 6 27 38 33 40 58 61 61 60 58 51 42 39 36 31 30 30 27 24 21 19 16 14 12 11 10 9 9 8 8 9 9 7 6 5 5 7 8 9
9 15 12 8 10 12 10 16 12 31 18 25 32 37 49 62 66 66 62 57 52 47 42 39 36 31 29 29 27 24 20 17 14 12 10 8 6 6 6 5 5 6 6 4 3 3 6 7 8
9 12 20 26 18 24 18 27 19 30 23 12 30 42 49 56 63 63 56 52 51 50 46 44 40 37 33 31 29 26 24 20 17 14 11 9 6 3 2 2 2 3 2 2 1 3 6 6 6
18 16 12 28 35 18 14 8 9 16 36 20 31 47 54 57 60 64 63 57 56 49 47 47 45 40 37 34 31 29 27 24 22 19 16 14 12 9 6 5 3 3 3 2 3 4 7 7 6
13 3 8 24 10 8 7 12 17 29 26 28 39 50 56 60 58 60 60 60 57 51 46 46 44 42 40 37 34 32 30 29 27 23 22 20 19 16 14 12 9 9 8 8 8 8 7 7 8
9 3 11 7 15 6 11 19 27 30 28 34 43 52 58 61 55 55 60 58 58 53 50 45 43 43 40 36 33 32 34 33 30 28 27 26 24 22 20 18 15 16 14 14 13 14 14 13 14
3 7 17 12 16 8 12 11 22 27 34 39 48 57 60 60 60 55 57 58 59 57 55 49 47 45 40 37 34 32 32 31 32 29 28 27 23 23 24 21 21 21 20 18 17 17 19 19 21
13 21 9 25 10 10 13 16 22 18 37 50 51 57 62 63 63 53 55 57 61 60 58 54 49 49 45 41 38 37 38 37 32 34 33 30 28 26 24 22 23 24 21 20 20 20 22 24 25
11 8 30 7 14 9 21 29 20 34 28 40 47 57 67 69 58 56 54 55 58 64 63 62 58 54 52 51 50 48 50 44 41 41 39 36 35 31 30 27 24 19 18 17 23 24 28 29 33
8 8 8 9 5 9 8 19 19 17 21 45 62 62 69 69 64 61 57 57 60 63 66 65 59 61 57 56 53 52 46 45 49 37 42 40 38 38 37 34 31 30 27 25 26 30 32 33 37
10 8 4 8 2 6 3 19 20 15 35 47 44 68 66 70 70 69 63 64 61 67 69 65 60 60 59 61 63 61 57 56 55 51 43 48 46 45 44 40 36 35 33 32 32 34 37 33 36
17 13 7 5 5 9 5 11 24 23 22 24 63 53 70 71 70 69 64 67 68 70 71 69 63 64 63 65 69 69 63 61 53 46 42 33 45 47 44 41 40 37 37 38 40 37 36 34 34
8 13 11 8 6 8 8 7 10 12 19 23 36 62 63 71 76 77 69 68 63 70 74 70 70 74 72 70 63 66 69 56 43 36 35 32 32 35 37 40 40 40 41 38 32 32 30 29 29
18 13 13 10 6 7 18 12 10 15 26 8 32 67 76 74 78 82 74 68 63 62 70 69 67 71 74 73 69 66 64 59 50 44 39 28 28 30 32 39 40 41 40 37 34 30 27 26 28
23 28 5 4 4 24 7 10 34 14 14 14 24 63 75 83 89 84 78 73 67 67 66 68 65 67 71 73 71 70 66 62 56 49 44 40 41 37 33 35 36 36 33 31 28 28 28 25 23
25 30 13 15 8 14 8 16 19 21 41 33 36 38 41 54 72 93 92 80 73 70 67 66 63 64 68 71 70 69 68 64 59 55 53 46 46 39 33 29 35 40 29 28 28 29 26 26 27
10 21 11 9 3 5 11 17 17 18 19 24 43 42 50 48 59 68 78 81 72 68 68 67 65 63 64 65 65 65 65 62 60 58 60 53 47 36 35 31 26 25 28 30 26 24 23 27 24
19 21 7 2 3 10 10 10 18 5 22 21 21 50 59 47 48 55 62 65 64 61 60 61 61 60 60 62 65 65 64 60 56 58 55 52 48 37 36 36 33 33 30 29 30 24 20 18 15
7 11 8 9 11 11 17 16 15 22 22 24 29 57 54 57 56 58 58 57 55 57 58 57 56 56 58 58 57 56 58 58 56 52 52 52 47 45 45 45 35 33 30 26 20 15 13 11 12
4 15 30 13 25 9 4 23 6 15 15 26 41 45 42 43 50 53 53 52 52 51 51 51 49 48 47 44 42 40 43 51 53 55 56 50 44 41 36 33 30 27 24 20 16 12 10 10 13
Wind_Direction_500mb
276 314 336 32 50 62 261 250 288 126 107 332 136 144 154 80 129 188 148 148 153 153 144 144 153 124 104 100 107 113 111 104 110 115 118 123 134 145 135 127 106 100 97 98 97 92 86 75 71
255 309 344 78 83 58 272 266 214 175 130 108 94 94 57 83 100 141 144 147 151 151 144 143 135 127 116 109 106 108 113 102 99 107 104 111 123 126 105 106 103 100 100 94 94 91 84 77 71
283 333 47 89 107 158 228 208 181 126 145 86 116 77 81 96 129 140 145 147 152 149 149 143 137 136 119 105 100 106 104 104 102 104 105 101 106 102 103 102 99 100 101 98 98 92 84 70 66
262 63 61 79 174 232 203 188 142 135 197 112 125 69 76 108 132 144 147 151 154 152 153 145 142 135 126 105 105 107 110 115 106 101 105 105 98 103 98 98 102 103 105 103 96 87 80 70 70
67 61 54 55 296 266 251 169 150 159 150 135 113 121 103 138 144 151 155 156 159 156 154 150 143 140 134 120 104 103 109 110 101 88 91 95 94 99 99 96 98 101 104 100 83 74 74 71 70
60 49 56 263 273 285 260 165 149 152 158 147 114 112 153 162 159 156 159 158 164 163 160 153 149 150 147 124 110 104 103 105 103 94 90 87 87 92 98 93 87 87 96 90 84 84 81 69 65
101 73 264 192 266 305 192 159 165 162 158 197 145 105 170 165 162 158 160 162 167 174 170 159 157 155 151 140 125 115 113 113 112 101 91 91 95 100 98 90 89 91 98 98 94 88 73 61 50
120 99 146 262 256 274 199 170 190 170 184 158 165 167 190 170 166 163 164 170 171 177 177 167 164 162 155 153 141 133 126 119 109 102 98 87 86 91 89 89 94 91 91 90 81 67 51 39 36
144 90 155 200 170 266 195 184 163 172 153 172 199 190 193 172 169 171 170 173 179 183 183 177 173 169 167 158 155 149 136 121 110 106 104 101 99 100 90 83 93 93 93 94 84 59 32 26 32
121 130 193 198 216 307 280 224 172 167 166 207 206 197 173 178 176 181 180 180 184 186 184 186 181 179 179 172 167 160 151 141 129 123 115 107 102 101 97 89 89 95 91 91 86 67 31 14 19
161 188 186 230 325 352 296 247 197 159 216 210 203 190 174 181 184 191 191 193 189 188 190 189 190 189 188 188 181 177 170 163 155 144 130 118 109 101 103 95 86 90 96 97 94 73 32 12 11
160 195 198 246 284 321 310 300 225 203 214 234 221 210 184 187 193 195 200 198 193 194 195 195 193 198 200 199 197 192 188 185 180 170 156 146 136 124 108 105 101 97 93 98 94 59 21 11 9
188 180 210 254 303 314 283 252 241 235 220 232 208 204 197 199 201 201 202 203 199 200 198 200 202 201 205 208 207 204 202 200 202 200 195 195 190 184 153 111 106 96 93 78 55 7 356 359 11
207 186 181 238 247 291 274 263 197 253 214 222 207 207 203 205 205 205 206 205 209 206 203 204 207 209 210 216 218 217 217 216 216 215 216 221 223 226 232 239 245 242 246 265 304 322 341 346 349
114 174 218 237 196 258 316 280 214 236 213 214 205 207 206 208 208 215 213 210 212 212 210 211 213 215 218 219 222 225 226 229 231 229 229 233 235 236 241 241 252 262 270 280 285 289 302 317 322
131 132 224 188 163 234 148 274 269 226 209 212 209 208 209 210 216 219 222 221 218 218 216 216 217 218 220 221 224 229 232 236 238 239 242 240 242 245 248 250 255 259 265 273 283 287 291 295 297
249 207 217 298 203 142 169 270 268 233 214 214 215 213 213 216 219 222 226 225 226 225 223 220 224 227 227 227 230 237 240 245 243 241 243 246 251 251 253 255 254 259 261 267 277 288 293 292 294
186 208 216 224 213 194 215 239 282 266 218 221 219 218 219 220 224 222 226 227 228 229 230 230 230 231 231 233 232 237 242 246 248 245 243 242 249 255 260 263 260 260 267 280 291 294 302 308 304
159 180 233 250 213 201 237 233 238 259 241 238 230 224 224 226 228 226 228 229 228 231 232 232 231 232 230 230 231 232 233 237 241 243 246 249 253 253 258 262 267 270 285 292 285 292 297 299 301
160 182 246 295 301 189 279 252 241 220 236 238 234 231 230 232 231 230 227 226 225 228 230 230 229 233 233 234 238 242 248 247 248 260 253 250 250 254 257 259 265 270 273 276 280 285 292 296 296
216 180 155 241 293 249 342 259 245 249 234 246 246 239 240 237 233 233 229 231 229 228 228 227 227 230 232 237 239 241 244 250 247 248 247 247 251 256 259 263 264 267 271 273 277 279 277 281 287
214 148 129 45 311 245 202 278 227 226 232 222 235 237 236 236 237 239 238 237 235 235 232 231 230 233 235 237 240 240 243 248 249 248 256 251 249 251 255 260 263 263 265 269 274 280 288 286 289
170 147 166 159 101 359 230 267 242 167 238 235 229 237 240 237 238 239 236 240 241 238 234 234 233 233 235 236 237 238 240 245 248 250 245 259 255 254 250 250 252 255 257 261 263 272 276 286 289
142 59 32 41 109 246 216 196 230 213 229 231 231 237 239 242 240 239 239 237 236 233 230 232 234 235 233 233 233 234 236 239 238 241 244 251 247 249 250 250 251 252 256 262 265 266 272 279 281
163 153 174 212 219 236 148 167 243 261 238 229 219 237 238 240 241 240 233 229 233 233 230 231 231 232 233 233 233 235 236 240 240 237 243 242 249 252 256 253 250 251 252 253 258 265 269 267 269
191 183 160 197 223 251 82 227 247 218 249 238 248 250 252 246 247 245 239 233 230 229 227 226 226 226 229 234 235 238 239 238 237 234 235 236 245 248 245 244 242 250 249 255 259 263 256 277 279
196 208 186 108 33 50 206 272 300 249 265 253 250 252 249 252 248 241 230 224 222 224 225 223 222 222 227 232 235 236 238 235 230 228 226 227 237 243 242 231 231 244 248 255 243 244 253 260 269
172 158 174 146 206 258 273 265 219 240 226 239 241 243 247 245 235 223 215 213 213 217 219 220 221 226 231 236 238 238 236 231 223 220 225 229 228 233 234 235 237 239 228 226 239 246 248 256 267
149 173 196 166 164 217 254 258 213 215 223 236 238 249 250 230 217 209 207 209 210 214 219 223 226 232 238 238 236 232 227 222 218 212 214 219 218 231 233 236 218 219 225 224 222 222 237 258 280
231 190 198 198 218 230 186 259 215 245 263 281 275 273 264 240 217 209 210 213 214 217 223 227 226 225 224 220 216 210 208 205 201 198 202 209 225 226 215 201 202 199 198 198 206 222 251 286 303
Wind_Speed_850mb
8 11 12 5 9 9 1 3 2 6 3 1 11 8 10 11 6 6 32 26 36 31 29 24 14 16 18 19 19 19 22 21 20 21 22 19 17 11 10 16 24 30 33 29 26 22 23 23 23
7 8 3 7 9 6 8 4 8 4 22 31 23 13 8 6 8 26 35 37 34 31 29 24 21 19 20 20 20 21 24 26 21 26 29 25 20 20 30 32 32 32 32 31 29 27 26 24 28
5 4 3 9 7 5 7 6 7 11 29 4 8 13 7 6 18 43 33 44 36 32 27 27 25 19 20 21 22 23 29 29 21 27 31 29 31 31 31 30 34 34 33 31 27 30 24 23 25
2 5 10 8 4 5 7 5 10 15 5 2 17 14 9 14 36 24 37 42 35 30 25 26 25 22 19 19 22 25 30 31 24 29 28 26 27 28 27 28 29 30 31 28 20 20 19 22 26
8 7 8 5 5 5 5 10 21 5 8 14 3 7 10 31 22 29 38 41 33 31 25 26 25 23 20 17 20 23 21 21 20 24 25 22 21 25 24 24 24 23 22 15 15 15 16 19 22
10 8 8 1 7 8 4 19 12 4 7 15 15 18 13 20 25 34 38 38 30 26 28 27 27 24 21 18 18 19 20 18 18 20 22 22 21 22 25 24 23 21 18 15 14 16 16 19 22
9 8 3 6 5 6 6 21 9 10 9 6 29 10 10 30 30 35 39 35 32 28 29 31 31 26 22 18 18 18 19 19 19 19 21 22 22 24 26 24 22 20 19 16 15 14 15 17 20
12 10 10 4 4 6 4 15 7 19 9 21 18 12 11 44 41 41 40 36 34 30 29 32 32 27 22 20 18 18 19 19 19 19 18 19 23 23 22 20 20 18 17 16 14 11 12 15 18
14 6 7 7 8 7 4 7 8 13 19 17 16 7 9 49 48 50 48 44 40 36 32 32 32 31 25 22 21 20 19 17 17 16 15 15 16 16 18 18 16 15 14 13 11 9 10 12 15
8 7 13 6 4 7 5 7 19 12 18 15 17 15 21 53 57 59 60 56 47 41 38 33 32 32 30 25 21 20 18 16 15 14 13 12 12 12 12 12 13 12 10 9 8 7 8 11 13
7 10 10 14 5 10 13 9 16 16 6 27 38 33 40 58 61 61 60 58 51 42 39 36 31 30 30 27 24 21 19 16 14 12 11 10 9 9 8 8 9 9 7 6 5 5 7 8 9
9 15 12 8 10 12 10 16 12 31 18 25 32 37 49 62 66 66 62 57 52 47 42 39 36 31 29 29 27 24 20 17 14 12 10 8 6 6 6 5 5 6 6 4 3 3 6 7 8
9 12 20 26 18 24 18 27 19 30 23 12 30 42 49 56 63 63 56 52 51 50 46 44 40 37 33 31 29 26 24 20 17 14 11 9 6 3 2 2 2 3 2 2 1 3 6 6 6
18 16 12 28 35 18 14 8 9 16 36 20 31 47 54 57 60 64 63 57 56 49 47 47 45 40 37 34 31 29 27 24 22 19 16 14 12 9 6 5 3 3 3 2 3 4 7 7 6
13 3 8 24 10 8 7 12 17 29 26 28 39 50 56 60 58 60 60 60 57 51 46 46 44 42 40 37 34 32 30 29 27 23 22 20 19 16 14 12 9 9 8 8 8 8 7 7 8
9 3 11 7 15 6 11 19 27 30 28 34 43 52 58 61 55 55 60 58 58 53 50 45 43 43 40 36 33 32 34 33 30 28 27 26 24 22 20 18 15 16 14 14 13 14 14 13 14
3 7 17 12 16 8 12 11 22 27 34 39 48 57 60 60 60 55 57 58 59 57 55 49 47 45 40 37 34 32 32 31 32 29 28 27 23 23 24 21 21 21 20 18 17 17 19 19 21
13 21 9 25 10 10 13 16 22 18 37 50 51 57 62 63 63 53 55 57 61 60 58 54 49 49 45 41 38 37 38 37 32 34 33 30 28 26 24 22 23 24 21 20 20 20 22 24 25
11 8 30 7 14 9 21 29 20 34 28 40 47 57 67 69 58 56 54 55 58 64 63 62 58 54 52 51 50 48 50 44 41 41 39 36 35 31 30 27 24 19 18 17 23 24 28 29 33
8 8 8 9 5 9 8 19 19 17 21 45 62 62 69 69 64 61 57 57 60 63 66 65 59 61 57 56 53 52 46 45 49 37 42 40 38 38 37 34 31 30 27 25 26 30 32 33 37
10 8 4 8 2 6 3 19 20 15 35 47 44 68 66 70 70 69 63 64 61 67 69 65 60 60 59 61 63 61 57 56 55 51 43 48 46 45 44 40 36 35 33 32 32 34 37 33 36
17 13 7 5 5 9 5 11 24 23 22 24 63 53 70 71 70 69 64 67 68 70 71 69 63 64 63 65 69 69 63 61 53 46 42 33 45 47 44 41 40 37 37 38 40 37 36 34 34
8 13 11 8 6 8 8 7 10 12 19 23 36 62 63 71 76 77 69 68 63 70 74 70 70 74 72 70 63 66 69 56 43 36 35 32 32 35 37 40 40 40 41 38 32 32 30 29 29
18 13 13 10 6 7 18 12 10 15 26 8 32 67 76 74 78 82 74 68 63 62 70 69 67 71 74 73 69 66 64 59 50 44 39 28 28 30 32 39 40 41 40 37 34 30 27 26 28
23 28 5 4 4 24 7 10 34 14 14 14 24 63 75 83 89 84 78 73 67 67 66 68 65 67 71 73 71 70 66 62 56 49 44 40 41 37 33 35 36 36 33 31 28 28 28 25 23
25 30 13 15 8 14 8 16 19 21 41 33 36 38 41 54 72 93 92 80 73 70 67 66 63 64 68 71 70 69 68 64 59 55 53 46 46 39 33 29 35 40 29 28 28 29 26 26 27
10 21 11 9 3 5 11 17 17 18 19 24 43 42 50 48 59 68 78 81 72 68 68 67 65 63 64 65 65 65 65 62 60 58 60 53 47 36 35 31 26 25 28 30 26 24 23 27 24
19 21 7 2 3 10 10 10 18 5 22 21 21 50 59 47 48 55 62 65 64 61 60 61 61 60 60 62 65 65 64 60 56 58 55 52 48 37 36 36 33 33 30 29 30 24 20 18 15
7 11 8 9 11 11 17 16 15 22 22 24 29 57 54 57 56 58 58 57 55 57 58 57 56 56 58 58 57 56 58 58 56 52 52 52 47 45 45 45 35 33 30 26 20 15 13 11 12
4 15 30 13 25 9 4 23 6 15 15 26 41 45 42 43 50 53 53 52 52 51 51 51 49 48 47 44 42 40 43 51 53 55 56 50 44 41 36 33 30 27 24 20 16 12 10 10 13
Wind_Direction_850mb
276 314 336 32 50 62 261 250 288 126 107 332 136 144 154 80 129 188 148 148 153 153 144 144 153 124 104 100 107 113 111 104 110 115 118 123 134 145 135 127 106 100 97 98 97 92 86 75 71
255 309 344 78 83 58 272 266 214 175 130 108 94 94 57 83 100 141 144 147 151 151 144 143 135 127 116 109 106 108 113 102 99 107 104 111 123 126 105 106 103 100 100 94 94 91 84 77 71
283 333 47 89 107 158 228 208 181 126 145 86 116 77 81 96 129 140 145 147 152 149 149 143 137 136 119 105 100 106 104 104 102 104 105 101 106 102 103 102 99 100 101 98 98 92 84 70 66
262 63 61 79 174 232 203 188 142 135 197 112 125 69 76 108 132 144 147 151 154 152 153 145 142 135 126 105 105 107 110 115 106 101 105 105 98 103 98 98 102 103 105 103 96 87 80 70 70
67 61 54 55 296 266 251 169 150 159 150 135 113 121 103 138 144 151 155 156 159 156 154 150 143 140 134 120 104 103 109 110 101 88 91 95 94 99 99 96 98 101 104 100 83 74 74 71 70
60 49 56 263 273 285 260 165 149 152 158 147 114 112 153 162 159 156 159 158 164 163 160 153 149 150 147 124 110 104 103 105 103 94 90 87 87 92 98 93 87 87 96 90 84 84 81 69 65
101 73 264 192 266 305 192 159 165 162 158 197 145 105 170 165 162 158 160 162 167 174 170 159 157 155 151 140 125 115 113 113 112 101 91 91 95 100 98 90 89 91 98 98 94 88 73 61 50
120 99 146 262 256 274 199 170 190 170 184 158 165 167 190 170 166 163 164 170 171 177 177 167 164 162 155 153 141 133 126 119 109 102 98 87 86 91 89 89 94 91 91 90 81 67 51 39 36
144 90 155 200 170 266 195 184 163 172 153 172 199 190 193 172 169 171 170 173 179 183 183 177 173 169 167 158 155 149 136 121 110 106 104 101 99 100 90 83 93 93 93 94 84 59 32 26 32
121 130 193 198 216 307 280 224 172 167 166 207 206 197 173 178 176 181 180 180 184 186 184 186 181 179 179 172 167 160 151 141 129 123 115 107 102 101 97 89 89 95 91 91 86 67 31 14 19
161 188 186 230 325 352 296 247 197 159 216 210 203 190 174 181 184 191 191 193 189 188 190 189 190 189 188 188 181 177 170 163 155 144 130 118 109 101 103 95 86 90 96 97 94 73 32 12 11
160 195 198 246 284 321 310 300 225 203 214 234 221 210 184 187 193 195 200 198 193 194 195 195 193 198 200 199 197 192 188 185 180 170 156 146 136 124 108 105 101 97 93 98 94 59 21 11 9
188 180 210 254 303 314 283 252 241 235 220 232 208 204 197 199 201 201 202 203 199 200 198 200 202 201 205 208 207 204 202 200 202 200 195 195 190 184 153 111 106 96 93 78 55 7 356 359 11
207 186 181 238 247 291 274 263 197 253 214 222 207 207 203 205 205 205 206 205 209 206 203 204 207 209 210 216 218 217 217 216 216 215 216 221 223 226 232 239 245 242 246 265 304 322 341 346 349
114 174 218 237 196 258 316 280 214 236 213 214 205 207 206 208 208 215 213 210 212 212 210 211 213 215 218 219 222 225 226 229 231 229 229 233 235 236 241 241 252 262 270 280 285 289 302 317 322
131 132 224 188 163 234 148 274 269 226 209 212 209 208 209 210 216 219 222 221 218 218 216 216 217 218 220 221 224 229 232 236 238 239 242 240 242 245 248 250 255 259 265 273 283 287 291 295 297
249 207 217 298 203 142 169 270 268 233 214 214 215 213 213 216 219 222 226 225 226 225 223 220 224 227 227 227 230 237 240 245 243 241 243 246 251 251 253 255 254 259 261 267 277 288 293 292 294
186 208 216 224 213 194 215 239 282 266 218 221 219 218 219 220 224 222 226 227 228 229 230 230 230 231 231 233 232 237 242 246 248 245 243 242 249 255 260 263 260 260 267 280 291 294 302 308 304
159 180 233 250 213 201 237 233 238 259 241 238 230 224 224 226 228 226 228 229 228 231 232 232 231 232 230 230 231 232 233 237 241 243 246 249 253 253 258 262 267 270 285 292 285 292 297 299 301
160 182 246 295 301 189 279 252 241 220 236 238 234 231 230 232 231 230 227 226 225 228 230 230 229 233 233 234 238 242 248 247 248 260 253 250 250 254 257 259 265 270 273 276 280 285 292 296 296
216 180 155 241 293 249 342 259 245 249 234 246 246 239 240 237 233 233 229 231 229 228 228 227 227 230 232 237 239 241 244 250 247 248 247 247 251 256 259 263 264 267 271 273 277 279 277 281 287
214 148 129 45 311 245 202 278 227 226 232 222 235 237 236 236 237 239 238 237 235 235 232 231 230 233 235 237 240 240 243 248 249 248 256 251 249 251 255 260 263 263 265 269 274 280 288 286 289
170 147 166 159 101 359 230 267 242 167 238 235 229 237 240 237 238 239 236 240 241 238 234 234 233 233 235 236 237 238 240 245 248 250 245 259 255 254 250 250 252 255 257 261 263 272 276 286 289
142 59 32 41 109 246 216 196 230 213 229 231 231 237 239 242 240 239 239 237 236 233 230 232 234 235 233 233 233 234 236 239 238 241 244 251 247 249 250 250 251 252 256 262 265 266 272 279 281
163 153 174 212 219 236 148 167 243 261 238 229 219 237 238 240 241 240 233 229 233 233 230 231 231 232 233 233 233 235 236 240 240 237 243 242 249 252 256 253 250 251 252 253 258 265 269 267 269
191 183 160 197 223 251 82 227 247 218 249 238 248 250 252 246 247 245 239 233 230 229 227 226 226 226 229 234 235 238 239 238 237 234 235 236 245 248 245 244 242 250 249 255 259 263 256 277 279
196 208 186 108 33 50 206 272 300 249 265 253 250 252 249 252 248 241 230 224 222 224 225 223 222 222 227 232 235 236 238 235 230 228 226 227 237 243 242 231 231 244 248 255 243 244 253 260 269
172 158 174 146 206 258 273 265 219 240 226 239 241 243 247 245 235 223 215 213 213 217 219 220 221 226 231 236 238 238 236 231 223 220 225 229 228 233 234 235 237 239 228 226 239 246 248 256 267
149 173 196 166 164 217 254 258 213 215 223 236 238 249 250 230 217 209 207 209 210 214 219 223 226 232 238 238 236 232 227 222 218 212 214 219 218 231 233 236 218 219 225 224 222 222 237 258 280
231 190 198 198 218 230 186 259 215 245 263 281 275 273 264 240 217 209 210 213 214 217 223 227 226 225 224 220 216 210 208 205 201 198 202 209 225 226 215 201 202 199 198 198 206 222 251 286 303